Date String (YYYY-MM-DD hh:mm:ss) UTC,Instrument flags,Ambient pressure (hPa),Sample flow (lpm),Bypass flow (lpm),Sample temperature (°C),Ambient temperature (°C),ASC tube jacket temperature (°C),LED temperature (°C),Box temperature (°C),Sample RH (%),Span deviation,Mass concentration (μg/m³),Mass concentration (μg/m³),Mass concentration (μg/m³)
DateTimeUTC,F1_M11,P_M11,Q1_M11,Q2_M11,T1_M11,T2_M11,T3_M11,T4_M11,T5_M11,U1_M11,ZSPAN_M11,X0_M11,X2_M11,X1_M11
2022-11-05 02:00:00,,0818.6,5.00,0.00,25.3,23.6,00.0,34.0,27.1,11.7,-000.0,0009.17,0006.24,0005.93
2022-11-05 02:01:00,,0818.6,5.00,0.00,25.2,23.6,00.0,34.1,27.1,11.3,-000.2,0009.32,0006.27,0005.95
2022-11-05 02:02:00,,0818.7,5.00,0.00,25.2,23.6,00.0,34.0,27.1,10.2,-000.9,0009.12,0006.11,0005.82
2022-11-05 02:03:00,,0818.8,5.00,0.00,25.2,23.6,00.0,34.0,27.1,11.1,-001.2,0008.76,0006.06,0005.78
2022-11-05 02:04:00,,0818.7,5.01,0.00,25.2,23.6,00.0,34.0,27.1,11.2,-001.7,0008.62,0006.02,0005.76
2022-11-05 02:05:00,,0818.7,5.00,0.00,25.2,23.6,00.0,34.0,27.1,11.1,-001.6,0008.65,0005.97,0005.70
2022-11-05 02:06:00,,0818.6,5.00,0.00,25.2,23.6,00.0,34.0,27.1,11.2,-001.7,0008.61,0005.89,0005.61
2022-11-05 02:07:00,,0818.6,4.98,0.00,25.2,23.5,00.0,34.0,27.0,11.2,-001.8,0008.58,0005.80,0005.49
2022-11-05 02:08:00,,0818.6,5.00,0.00,25.1,23.3,00.0,34.0,26.9,10.6,-001.6,0008.53,0005.70,0005.39
2022-11-05 02:09:00,,0818.7,5.01,0.00,25.1,23.2,00.0,34.0,26.9,10.6,-001.6,0008.34,0005.51,0005.21
2022-11-05 02:10:00,,0818.7,5.00,0.00,25.1,23.3,00.0,33.9,26.9,10.7,-001.3,0008.16,0005.33,0005.04
2022-11-05 02:11:00,,0818.7,5.01,0.00,25.1,23.4,00.0,33.9,26.9,10.8,-001.2,0008.01,0005.19,0004.89
2022-11-05 02:12:00,,0818.7,4.99,0.00,25.1,23.4,00.0,33.9,27.0,11.0,-001.3,0007.86,0005.10,0004.79
2022-11-05 02:13:00,,0818.6,4.99,0.00,25.1,23.5,00.0,33.9,27.0,10.8,-000.3,0007.90,0005.14,0004.82
2022-11-05 02:14:00,,0818.6,5.00,0.00,25.1,23.5,00.0,33.9,27.0,09.9,0000.0,0007.87,0005.02,0004.71
2022-11-05 02:15:00,,0818.6,5.00,0.00,25.1,23.5,00.0,33.9,27.0,10.4,0000.0,0007.87,0004.87,0004.56
2022-11-05 02:16:00,,0818.6,5.00,0.00,25.1,23.4,00.0,33.9,27.0,10.5,0000.0,0008.09,0004.79,0004.48
2022-11-05 02:17:00,,0818.5,5.00,0.00,25.1,23.4,00.0,33.9,26.9,11.0,0000.0,0008.10,0004.75,0004.45
2022-11-05 02:18:00,,0818.5,5.00,0.00,25.1,23.5,00.0,33.9,26.9,10.2,0000.0,0008.13,0004.61,0004.32
2022-11-05 02:19:00,,0818.5,4.99,0.00,25.1,23.5,00.0,33.9,27.0,10.0,0000.0,0007.89,0004.42,0004.15
2022-11-05 02:20:00,,0818.5,5.00,0.00,25.1,23.5,00.0,33.9,26.9,09.9,0000.0,0007.85,0004.36,0004.08
2022-11-05 02:21:00,,0818.5,5.01,0.00,25.0,23.5,00.0,33.9,26.9,09.7,0000.0,0007.73,0004.22,0003.95
2022-11-05 02:22:00,,0818.4,5.01,0.00,25.1,23.5,00.0,33.9,26.9,09.8,0000.0,0007.57,0004.07,0003.81
2022-11-05 02:23:00,,0818.3,5.00,0.00,25.0,23.5,00.0,33.9,26.9,09.2,0000.0,0007.28,0003.87,0003.63
2022-11-05 02:24:00,,0818.2,5.00,0.00,25.0,23.4,00.0,33.9,26.8,09.3,0000.0,0006.78,0003.65,0003.43
2022-11-05 02:25:00,,0818.4,5.00,0.00,25.0,23.4,00.0,33.9,26.8,09.4,0000.0,0006.89,0003.62,0003.39
2022-11-05 02:26:00,,0818.2,4.99,0.00,25.0,23.4,00.0,33.8,26.8,09.3,0000.0,0007.07,0003.53,0003.30
2022-11-05 02:27:00,,0818.3,5.00,0.00,25.0,23.3,00.0,33.8,26.8,09.3,0000.0,0006.36,0003.39,0003.16
2022-11-05 02:28:00,,0818.4,5.01,0.00,25.0,23.3,00.0,33.8,26.8,09.7,0000.0,0005.90,0003.22,0002.91
2022-11-05 02:29:00,,0818.4,4.99,0.00,24.9,23.3,00.0,33.8,26.8,09.9,0000.0,0005.46,0003.17,0002.84
2022-11-05 02:30:00,,0818.3,4.99,0.00,24.9,23.3,00.0,33.8,26.8,10.1,0000.0,0005.58,0003.19,0002.87
2022-11-05 02:31:00,,0818.4,5.01,0.00,24.9,23.3,00.0,33.8,26.8,10.3,0000.0,0005.59,0003.23,0002.96
2022-11-05 02:32:00,,0818.3,5.01,0.00,24.9,23.3,00.0,33.8,26.8,10.2,0000.0,0005.82,0003.30,0003.06
2022-11-05 02:33:00,,0818.4,5.00,0.00,24.9,23.4,00.0,33.8,26.8,10.4,0000.0,0005.99,0003.38,0003.16
2022-11-05 02:34:00,,0818.4,4.98,0.00,25.0,23.4,00.0,33.8,26.8,10.7,0000.0,0007.24,0003.51,0003.28
2022-11-05 02:35:00,,0818.4,5.00,0.00,25.0,23.4,00.0,33.8,26.8,10.2,0000.0,0007.69,0003.64,0003.39
2022-11-05 02:36:00,,0818.3,5.00,0.00,25.0,23.4,00.0,33.8,26.8,10.3,0000.0,0007.63,0003.71,0003.46
2022-11-05 02:37:00,,0818.3,5.00,0.00,25.0,23.4,00.0,33.7,26.9,10.3,0000.0,0007.51,0003.82,0003.55
2022-11-05 02:38:00,,0818.2,5.00,0.00,25.0,23.4,00.0,33.7,26.9,10.5,0000.0,0007.44,0003.95,0003.67
2022-11-05 02:39:00,,0818.2,5.01,0.00,25.0,23.4,00.0,33.7,26.9,10.5,0000.0,0007.59,0004.05,0003.77
2022-11-05 02:40:00,,0818.3,5.00,0.00,25.0,23.4,00.0,33.7,26.9,10.9,0000.0,0008.17,0004.18,0003.88
2022-11-05 02:41:00,,0818.3,5.00,0.00,25.0,23.4,00.0,33.7,26.8,11.3,0000.0,0008.83,0004.36,0004.05
2022-11-05 02:42:00,,0818.4,5.00,0.00,25.0,23.4,00.0,33.7,26.8,11.4,0000.0,0009.04,0004.51,0004.20
2022-11-05 02:43:00,,0818.3,4.99,0.00,25.0,23.4,00.0,33.7,26.9,11.6,0000.0,0009.13,0004.68,0004.39
2022-11-05 02:44:00,,0818.2,5.01,0.00,25.0,23.5,00.0,33.7,26.9,11.7,0000.0,0009.25,0004.85,0004.57
2022-11-05 02:45:00,,0818.2,5.00,0.00,25.0,23.5,00.0,33.7,26.9,12.0,0000.0,0008.84,0005.04,0004.74
2022-11-05 02:46:00,,0818.3,4.98,0.00,25.0,23.4,00.0,33.7,26.9,12.4,0000.0,0009.00,0005.32,0004.99
2022-11-05 02:47:00,,0818.4,5.00,0.00,25.0,23.4,00.0,33.7,26.9,12.4,0000.0,0009.20,0005.60,0005.26
2022-11-05 02:48:00,,0818.4,5.01,0.00,25.0,23.4,00.0,33.7,26.9,12.4,0000.0,0009.39,0005.85,0005.51
2022-11-05 02:49:00,,0818.3,5.01,0.00,24.9,23.4,00.0,33.7,26.8,12.3,0000.0,0009.81,0006.08,0005.74
2022-11-05 02:50:00,,0818.2,4.99,0.00,24.9,23.4,00.0,33.7,26.8,12.0,0000.4,0010.27,0006.27,0005.93
2022-11-05 02:51:00,,0818.4,5.00,0.00,24.9,23.4,00.0,33.7,26.8,11.8,0000.9,0010.07,0006.39,0006.05
2022-11-05 02:52:00,,0818.4,5.01,0.00,24.9,23.4,00.0,33.7,26.8,11.5,0000.7,0009.69,0006.44,0006.08
2022-11-05 02:53:00,,0818.4,4.99,0.00,24.9,23.4,00.0,33.7,26.8,11.6,-000.0,0009.75,0006.50,0006.10
2022-11-05 02:54:00,,0818.4,5.00,0.00,24.9,23.4,00.0,33.7,26.8,11.0,-000.6,0009.71,0006.43,0006.03
2022-11-05 02:55:00,,0818.4,5.01,0.00,25.0,23.4,00.0,33.7,26.8,11.6,-000.2,0009.78,0006.42,0006.00
2022-11-05 02:56:00,,0818.4,4.98,0.00,25.0,23.4,00.0,33.7,26.9,12.7,-000.2,0009.92,0006.50,0006.08
2022-11-05 02:57:00,,0818.4,5.01,0.00,25.0,23.4,00.0,33.7,26.9,13.1,-000.1,0009.93,0006.57,0006.16
2022-11-05 02:58:00,,0818.4,5.01,0.00,24.9,23.4,00.0,33.7,26.9,13.2,-000.3,0010.11,0006.68,0006.26
2022-11-05 02:59:00,,0818.4,4.98,0.00,24.9,23.4,00.0,33.7,26.8,13.3,-000.6,0010.68,0006.78,0006.33
